#timestamp,LO_Frequency,Hit,StdDev 
1541786415.5,286046995.8,N
1541786435.3,286046995.4,N
1541786455.2,286046995.7,N
1541786475.0,286046992.2,Y
1541786475.9,286046992.2,P
1541786495.7,286046998.0,N
1541786515.6,286046997.9,N
1541786535.4,286046996.8,N
1541786555.3,286046997.2,N
1541786575.1,286046995.5,N
1541786576.0,286046995.5,N
1541786595.8,286046997.5,N
1541786615.7,286046997.9,N
1541786635.5,286046995.6,N
1541786655.3,286046995.8,N
1541786675.2,286046996.1,N
1541786695.0,286046993.4,Y
1541786695.9,286046993.4,P
1541786715.8,286046996.8,N
1541786735.6,286046996.7,N
1541786755.4,286046997.8,N
1541786775.3,286046997.2,N
1541786795.1,286046994.9,Y
1541786815.9,286047000.6,P
1541786835.7,286047000.8,N
1541786855.5,286046998.5,N
1541786875.4,286046998.6,N
1541786895.2,286046998.4,N
1541786915.0,286046996.8,N
1541786915.9,286046996.8,N
1541786935.8,286046996.7,N
1541786955.6,286046998.0,N
1541786975.5,286046997.3,N
1541786995.3,286046996.1,N
1541787015.1,286046998.0,N
1541787035.9,286046997.5,N
1541787055.7,286046996.1,N
1541787075.5,286046995.4,Y
1541787095.4,286046996.8,P
1541787115.2,286046997.0,P
1541787135.1,286046996.9,P
1541787136.0,286046996.9,Y
1541787155.8,286047000.0,P
1541787175.6,286047000.1,N
1541787195.5,286047000.4,N
1541787215.3,286047002.7,N
1541787235.1,286046999.7,N
1541787255.9,286047000.9,N
1541787275.7,286047000.6,N
1541787295.6,286047000.8,N
1541787315.4,286046998.5,N
1541787335.2,286047000.9,N
1541787355.1,286047000.6,N
1541787356.0,286047000.6,N
1541787375.8,286047000.7,N
1541787395.6,286047000.5,N
1541787415.5,286046998.7,N
1541787435.3,286046997.0,N
1541787455.2,286046997.6,N
1541787475.9,286046997.2,N
1541787495.7,286046997.7,N
1541787515.6,286046998.0,N
1541787535.4,286046997.8,N
1541787555.2,286046997.9,N
1541787575.1,286046995.7,N
1541787576.0,286046995.7,N
1541787595.8,286046995.1,N
1541787615.7,286046995.1,N
1541787635.5,286046993.3,Y
1541787655.3,286046995.9,P
1541787675.2,286046995.9,N
1541787695.0,286046995.6,P
1541787695.9,286046995.6,Y
1541787715.8,286046998.9,P
1541787735.6,286046999.4,N
1541787755.4,286046999.0,N
1541787775.3,286046999.5,N
1541787795.1,286046997.1,N
1541787815.9,286046997.2,N
1541787835.7,286046996.8,N
1541787855.5,286046995.1,Y
1541787875.4,286046996.5,P
1541787895.2,286046996.9,P
1541787915.0,286046999.6,N
1541787915.9,286046999.6,N
1541787935.8,286046997.8,N
1541787955.6,286046995.0,Y
1541787975.5,286046999.1,P
1541787995.3,286046998.1,P
1541788015.1,286046998.7,N
1541788035.9,286046999.5,N
1541788055.7,286046999.6,N
1541788075.6,286046997.2,Y
1541788095.4,286046998.2,P
1541788115.2,286046998.7,P
1541788135.1,286046999.1,P
1541788136.0,286046999.1,N
1541788155.8,286046999.4,N
1541788175.7,286046996.5,Y
1541788195.5,286046998.9,P
1541788215.3,286046999.3,P
1541788235.2,286046999.6,N
1541788285.0,286046997.0,E
1541788295.9,286046999.3,N
1541788315.7,286046998.3,P
1541788335.5,286047001.2,N
1541788355.4,286047000.7,N
1541788375.2,286047000.7,N
1541788395.0,286046998.1,N
1541788396.0,286046998.1,N
1541788415.8,286046999.6,N
1541788435.6,286046999.1,N
1541788455.5,286046998.8,N
1541788475.3,286046996.5,Y
1541788495.1,286046998.5,P
1541788515.9,286047000.9,N
1541788535.7,286047000.8,N
1541788555.6,286047000.9,N
1541788575.4,286047001.0,N
1541788595.2,286046998.4,N
1541788615.1,286046998.7,N
1541788616.0,286046998.7,N
1541788635.8,286046998.8,N
1541788655.7,286046999.6,N
1541788675.5,286046997.3,N
1541788695.3,286046996.5,N
1541788715.2,286046997.6,N
1541788735.0,286046997.5,N
1541788735.9,286046997.5,N
1541788755.8,286046997.5,N
1541788775.6,286046997.6,N
1541788795.4,286046995.1,Y
1541788815.3,286046997.1,P
1541788835.1,286046999.1,N
1541788855.8,286046997.2,P
1541788875.7,286046997.7,N
1541788895.5,286046995.3,Y
1541788915.4,286046999.2,P
1541788935.2,286046997.0,P
1541788955.0,286046996.5,P
1541788955.9,286046996.5,Y
1541788975.8,286047000.6,P
1541788995.6,286046999.9,N
1541789015.4,286047001.0,N
1541789035.3,286046996.6,N
1541789055.1,286046999.0,N
1541789075.9,286046999.3,N
1541789095.7,286046997.7,N
1541789115.5,286046996.8,N
1541789135.4,286046999.5,N
1541789155.2,286046999.3,N
1541789175.0,286046999.2,N
1541789175.9,286046999.2,N
1541789195.8,286046999.0,N
1541789215.6,286046999.2,N
1541789235.5,286046999.6,N
1541789255.3,286046999.6,N
1541789275.1,286046997.5,N
1541789295.9,286046996.5,Y
1541789315.7,286046996.5,P
1541789335.6,286046998.4,N
1541789355.4,286046999.0,N
1541789375.2,286046999.1,N
1541789395.1,286046999.6,N
1541789426.0,286046997.6,E
1541789435.0,286046996.7,N
1541789435.9,286046996.7,P
1541789455.7,286046998.8,P
1541789475.6,286046998.4,N
1541789495.4,286046999.0,N
1541789515.3,286046998.8,N
1541789535.1,286046998.8,N
1541789536.0,286046998.8,N
1541789555.8,286046998.2,N
1541789575.7,286046998.4,N
1541789595.5,286046999.3,N
1541789615.3,286046998.7,N
1541789635.2,286046997.0,Y
1541789655.0,286046998.7,P
1541789655.9,286046998.7,P
1541789675.8,286046999.2,P
1541789695.6,286046999.1,Y
1541789715.4,286046999.4,P
1541789735.3,286046999.7,N
1541789755.1,286047001.6,P
1541789775.9,286047000.3,N
1541789795.7,286046998.4,N
1541789815.5,286046999.1,N
1541789835.4,286046997.0,Y
1541789855.2,286046998.3,P
1541789875.0,286046997.3,P
1541789875.9,286046997.3,N
1541789895.8,286046996.9,Y
1541789915.6,286047000.7,P
1541789935.5,286046998.3,N
1541789955.3,286047001.0,N
1541789975.1,286047001.0,N
1541789995.9,286046999.7,N
